Helicity
29 40 39 49 14 28 38 29 79 38 36 40 81 88 86 102 110 145 194 233 247 258 291 315 280 312 257 148 153 123 140 121 107 111 100 109 126 128 136 129 125 117 130 145
17 47 65 53 -8 19 32 31 47 29 18 27 72 97 94 108 132 129 158 199 230 249 277 270 278 253 234 99 133 165 137 109 119 119 114 118 125 132 130 117 110 138 135 157
32 72 71 35 14 57 84 100 92 78 58 97 100 104 94 92 103 101 120 156 224 247 253 249 279 263 142 150 187 163 123 122 121 125 123 116 124 126 124 128 134 134 137 139
62 53 66 101 88 82 49 30 48 44 48 93 117 139 119 95 88 74 78 152 197 232 247 267 273 184 192 214 209 140 125 121 129 128 122 121 123 117 127 128 135 123 148 129
78 73 82 48 94 90 80 82 97 60 59 99 104 120 78 88 57 48 92 142 177 209 242 278 293 218 209 227 171 136 131 130 119 125 121 116 117 126 132 139 129 133 141 131
114 68 50 116 114 94 70 68 133 113 92 79 76 116 124 86 52 91 134 164 233 316 335 354 267 270 247 213 142 135 136 117 119 112 111 120 123 138 137 130 125 129 135 131
122 109 96 92 92 93 110 176 98 54 69 68 77 86 141 102 96 118 157 236 298 329 343 398 415 402 188 156 132 119 102 102 95 108 119 120 126 131 131 114 136 147 137 127
133 141 104 90 66 95 140 98 100 98 92 93 91 163 144 142 172 184 220 313 374 455 500 496 452 203 187 179 130 78 76 84 93 111 126 125 117 125 136 117 132 138 141 114
95 127 109 38 67 102 113 101 88 97 113 117 116 128 151 181 251 339 428 535 622 436 639 448 247 131 163 155 82 71 71 71 90 104 99 116 115 120 118 121 131 118 105 87
106 69 39 40 56 67 63 68 73 70 81 97 97 120 157 213 296 382 440 536 592 679 491 417 303 164 95 80 62 58 56 69 89 98 122 108 119 110 107 123 123 104 89 78
75 46 68 64 85 85 89 83 80 78 99 115 118 112 144 217 289 427 528 603 465 486 235 239 187 113 61 51 56 56 66 84 98 105 94 97 111 110 100 103 111 93 93 86
112 153 104 86 99 77 78 103 119 119 128 148 142 199 242 306 391 536 617 529 551 513 249 87 66 58 44 52 64 65 80 97 104 97 101 113 105 94 119 96 123 90 75 95
114 81 65 65 102 146 152 158 166 189 221 243 286 332 420 459 610 707 673 531 484 188 82 61 46 37 48 67 64 63 68 77 88 98 108 110 99 95 87 112 111 106 99 92
159 125 107 156 135 140 163 194 232 278 308 321 359 458 557 597 579 582 363 200 58 43 41 38 33 40 64 66 62 52 62 89 83 95 119 112 104 93 86 94 110 83 95 87
166 138 145 152 173 202 207 204 232 256 285 360 362 385 430 426 312 114 -1 13 4 -7 5 35 53 61 75 68 60 62 87 89 107 103 107 113 111 102 99 106 127 70 63 121
131 144 153 185 184 185 229 265 273 241 220 190 184 150 125 53 -43 -72 -37 -21 -18 8 49 82 90 67 67 66 65 91 89 118 100 87 95 93 96 91 98 101 110 81 72 61
101 126 125 151 153 155 138 109 103 88 85 89 69 33 -11 -35 -32 -19 -3 27 61 67 76 97 92 78 97 90 94 111 120 109 107 91 84 86 87 80 78 91 105 84 69 72
176 139 99 69 66 84 77 84 94 79 67 46 14 21 25 34 26 38 57 73 85 89 79 92 126 111 129 127 125 141 145 131 122 121 109 95 86 78 81 81 90 75 68 73
93 94 101 115 107 105 86 69 54 42 48 59 63 64 59 61 53 60 78 92 92 94 77 117 136 153 154 168 168 157 140 136 126 120 128 108 100 89 79 72 81 99 87 81
125 118 102 99 98 95 94 94 77 78 64 60 56 63 63 73 80 88 102 101 94 105 110 121 132 147 152 175 175 145 123 129 128 136 119 103 102 94 77 61 63 69 90 104
123 113 118 117 114 95 104 88 81 90 80 74 75 73 73 74 83 99 106 120 111 138 135 137 139 142 147 158 155 145 139 127 127 123 101 95 92 80 80 63 55 53 66 83
110 120 114 112 120 121 109 105 95 81 80 77 78 80 87 90 105 106 130 130 142 176 167 166 149 142 149 218 161 177 145 102 97 87 80 87 84 80 77 69 54 40 53 58
126 121 113 120 120 106 97 99 80 78 72 77 83 94 105 115 133 142 141 163 170 157 152 149 135 129 144 142 158 163 151 121 115 98 104 97 80 85 82 77 66 41 37 39
128 135 130 113 103 113 123 104 83 78 73 66 85 104 119 133 149 148 168 155 146 147 146 139 133 115 99 122 136 141 179 148 117 100 100 92 92 89 85 83 74 46 33 38
128 131 135 124 119 108 95 80 50 57 70 80 99 112 131 139 151 141 145 141 128 135 132 116 117 133 124 131 195 194 179 146 135 104 93 85 82 82 80 80 61 35 36 38
148 140 124 125 109 89 71 56 53 63 72 85 94 99 98 100 102 106 103 107 108 102 127 142 161 151 165 169 153 180 174 149 130 129 108 90 79 70 71 77 70 49 42 50
150 141 117 100 88 75 69 60 70 88 103 103 93 96 97 95 89 90 99 117 133 137 130 129 124 122 101 114 116 136 146 148 133 114 101 85 71 65 62 67 64 52 46 42
Wind_Speed
49 45 44 42 9 11 13 5 20 30 26 40 36 32 33 30 22 20 21 22 22 22 21 19 19 20 25 29 33 32 37 43 50 55 58 57 57 59 64 67 67 65 65 62
54 48 48 56 4 4 8 11 15 20 22 52 40 38 34 31 28 27 27 26 24 23 23 21 20 20 30 32 30 33 39 45 53 56 57 57 58 61 65 65 63 62 64 58
50 45 46 61 23 15 17 23 27 35 35 50 43 40 39 37 34 33 30 27 25 24 23 21 19 25 31 27 29 35 42 48 53 56 57 58 60 62 65 66 62 62 55 49
42 35 44 41 35 35 26 27 31 34 43 47 46 45 43 42 38 34 31 28 25 24 22 21 23 27 25 26 32 37 44 50 54 55 58 60 61 65 65 66 65 58 48 44
36 36 53 53 37 39 39 48 48 44 46 38 42 45 45 36 37 39 34 29 24 22 20 20 23 24 23 29 33 41 49 51 53 56 61 63 64 65 64 65 61 52 43 40
33 42 47 43 39 36 38 56 46 44 44 35 35 48 50 43 41 39 32 25 22 19 19 20 23 21 27 34 39 47 51 52 54 56 60 62 65 62 60 60 54 47 41 37
36 44 51 40 40 35 49 50 51 50 44 36 42 46 50 47 40 33 27 21 16 16 20 19 19 28 32 37 46 48 48 53 55 56 62 64 62 57 57 57 50 44 40 34
38 45 59 29 32 45 50 53 55 55 45 39 44 51 52 48 36 28 25 24 21 19 19 22 27 25 35 43 46 47 56 59 58 59 62 63 61 59 55 51 48 43 39 34
34 42 38 32 46 46 51 55 56 53 54 48 50 50 48 44 37 32 27 25 23 24 31 31 26 31 41 48 46 51 57 59 59 60 62 63 63 60 54 49 45 41 36 33
45 41 42 44 44 47 50 52 55 55 53 52 52 51 47 43 36 31 26 25 25 28 25 27 32 37 44 45 49 54 59 62 64 64 65 65 63 57 51 44 41 36 34 33
47 51 48 44 48 50 55 57 58 58 55 56 56 55 48 42 35 30 29 33 31 28 29 32 36 40 44 45 49 56 61 64 64 65 66 66 61 55 44 38 34 34 31 30
53 54 54 55 56 64 60 61 62 62 61 59 57 50 40 35 32 27 29 30 30 35 34 37 43 44 47 51 56 60 60 61 62 66 66 64 59 53 39 34 32 25 23 26
52 61 58 58 52 58 57 60 59 59 56 55 51 41 35 34 34 35 33 36 37 36 36 40 44 49 52 54 56 58 64 66 65 65 65 60 54 52 49 37 25 20 17 18
54 59 46 55 54 55 53 52 52 51 51 48 45 42 37 35 35 35 36 39 36 36 38 42 50 53 54 54 58 63 65 66 66 66 60 54 51 49 44 38 36 30 15 14
57 53 49 48 48 48 46 46 47 49 46 46 42 40 39 39 38 37 37 36 37 43 48 49 52 55 55 57 62 65 67 68 64 57 56 51 46 45 40 33 28 26 23 24
48 47 45 44 45 44 43 44 44 43 44 41 40 39 39 40 42 42 40 42 45 50 51 51 53 56 58 61 63 66 65 60 58 60 57 51 43 46 38 29 25 23 22 25
44 45 42 43 41 41 41 41 41 40 41 44 46 48 49 48 46 45 48 52 50 51 52 53 57 60 62 63 62 60 61 61 59 57 55 53 47 42 37 28 21 21 21 26
35 33 33 34 35 38 40 42 46 49 50 52 54 53 51 49 50 55 57 55 55 59 62 63 62 63 60 59 59 61 62 61 59 54 54 52 47 42 35 28 20 19 23 27
34 34 36 39 42 45 47 50 52 53 54 53 52 51 49 50 52 55 58 61 65 69 69 63 60 60 58 58 58 60 60 59 57 52 52 51 45 41 36 31 24 22 24 29
37 39 41 43 46 48 50 51 52 52 51 52 53 54 58 59 61 64 64 65 62 64 68 67 65 62 59 56 56 57 58 58 58 53 49 46 42 43 40 35 27 25 25 28
41 42 44 45 46 46 49 50 52 53 55 56 59 61 63 66 67 68 72 77 72 69 69 69 65 62 57 56 55 57 58 58 57 54 48 46 44 46 43 39 36 31 30 33
40 41 43 44 45 46 48 51 53 56 60 63 65 69 73 75 76 77 70 72 76 77 77 73 71 65 60 57 55 57 55 56 54 55 49 45 46 48 49 48 45 43 43 44
38 40 43 45 47 47 49 55 59 61 66 69 72 76 79 79 79 84 92 79 80 82 81 77 72 66 62 56 53 48 47 48 53 56 55 54 55 56 58 59 58 56 55 54
38 41 43 44 46 50 58 61 64 65 68 72 74 78 82 87 85 80 81 85 86 85 83 77 71 69 64 56 53 49 47 47 50 54 54 53 52 53 56 58 59 59 61 63
38 41 45 48 52 56 59 64 66 69 75 78 80 81 83 82 86 91 89 88 86 86 85 83 76 65 62 54 50 50 49 49 51 53 54 55 55 56 58 59 61 64 67 68
41 44 46 50 53 57 61 66 72 76 81 84 83 84 86 86 87 89 88 88 86 85 80 75 71 65 58 55 52 51 50 49 51 54 57 59 59 60 61 63 65 67 69 73
43 47 49 52 56 61 65 71 76 80 80 84 87 85 87 88 89 88 87 85 83 79 73 68 65 61 57 54 52 50 50 51 52 56 58 61 62 63 65 66 68 69 71 73
Wind_Direction
265 275 278 283 352 153 183 260 323 329 329 330 331 332 329 328 318 302 291 281 276 278 284 290 295 302 315 321 326 329 333 334 335 336 337 338 338 338 339 340 341 343 343 345
259 277 281 272 200 250 241 261 280 284 274 322 324 326 325 322 315 304 296 289 282 281 286 290 295 300 318 319 327 331 332 333 335 336 338 337 338 338 339 340 342 343 343 345
274 292 295 276 232 236 298 307 307 309 315 323 325 323 322 321 316 309 303 295 287 283 287 292 296 311 318 321 329 330 332 334 336 337 337 337 337 338 339 340 343 343 345 348
298 313 303 314 322 323 312 310 310 307 314 321 323 325 325 324 319 314 308 301 293 293 294 298 308 318 324 328 330 331 333 334 336 337 336 336 336 336 338 339 342 344 346 349
311 312 306 310 323 323 324 321 327 320 321 320 325 326 323 326 323 320 314 308 301 302 303 309 316 322 326 331 332 332 332 334 335 336 335 335 336 336 337 339 342 345 347 349
319 315 315 324 333 339 336 320 338 341 338 336 335 327 329 332 327 324 323 318 314 315 316 319 324 328 328 329 331 332 334 335 335 336 335 336 336 337 339 341 344 346 346 348
315 314 315 330 332 341 324 327 338 338 334 332 328 325 330 332 331 330 326 323 322 320 317 327 332 331 327 330 329 332 335 336 336 336 336 336 337 339 340 342 345 346 346 346
322 319 314 351 350 330 330 331 332 333 332 327 327 328 328 329 328 329 327 329 323 318 328 330 330 327 330 331 334 332 329 333 335 336 337 338 338 337 340 343 345 345 345 345
323 325 334 333 330 332 331 328 329 328 329 325 322 323 325 326 325 325 327 333 342 327 336 336 337 334 331 334 335 333 332 333 334 335 336 339 338 337 339 341 343 344 343 344
323 329 327 328 329 329 329 328 329 328 326 325 323 323 322 323 323 321 322 325 333 328 322 328 330 332 332 335 335 332 332 332 333 335 336 337 339 340 340 342 343 344 344 345
321 323 326 330 330 331 330 329 328 328 328 327 326 324 323 324 326 331 334 338 337 338 326 330 335 332 333 335 335 333 333 333 335 336 337 337 341 343 344 344 345 344 346 349
319 327 326 326 329 327 327 328 329 328 327 329 329 329 333 334 336 338 338 341 338 335 331 329 334 336 335 333 332 332 336 337 338 337 338 339 341 344 342 341 342 341 344 347
321 322 323 325 330 333 332 332 334 334 335 336 340 344 346 347 348 346 343 341 339 335 335 331 333 334 334 333 333 335 335 335 338 338 337 340 343 341 340 343 338 331 330 338
329 328 331 333 330 335 338 341 345 349 349 351 352 355 356 355 353 348 341 338 339 336 335 334 330 331 334 336 334 333 335 336 336 337 339 340 339 340 339 336 337 342 334 333
330 333 332 335 340 343 347 349 351 351 354 357 1 2 359 354 351 347 344 341 337 328 325 328 329 331 334 333 332 333 335 336 338 340 339 337 336 336 335 334 335 340 345 346
333 338 342 344 346 349 353 354 356 357 358 359 357 355 352 347 342 339 339 336 332 329 329 329 329 330 331 331 330 331 334 339 340 340 339 337 335 335 333 329 332 336 340 342
332 334 343 348 353 358 360 2 2 0 357 352 348 344 343 342 341 340 336 333 331 329 327 326 325 326 327 328 330 332 334 336 335 337 338 337 335 333 332 327 324 332 334 338
359 4 8 9 5 1 357 354 351 348 345 344 342 341 341 340 338 336 335 336 333 328 325 322 323 324 326 328 329 329 329 330 331 330 334 335 333 331 329 325 316 321 329 331
14 11 6 0 356 352 350 347 345 344 344 346 347 347 346 343 340 338 337 334 330 328 329 330 328 326 324 326 328 329 329 329 329 328 329 331 331 330 327 324 314 310 316 323
360 357 354 351 350 349 348 349 350 352 353 351 349 346 342 340 338 335 335 332 331 330 330 329 328 325 324 325 326 328 329 329 328 327 327 328 329 329 328 325 319 315 312 316
351 351 351 351 353 356 356 355 354 354 352 350 346 342 339 337 336 334 332 329 331 332 330 328 327 326 325 325 326 327 328 329 328 327 324 326 329 329 327 326 326 325 320 318
350 351 353 354 354 356 358 357 355 352 348 345 342 339 336 334 333 331 332 329 330 332 330 327 326 323 322 321 322 323 324 327 329 331 327 327 329 328 326 326 326 325 324 322
352 353 354 354 354 354 354 352 350 348 344 342 340 338 336 335 334 331 328 333 332 331 329 327 324 321 320 319 320 322 322 325 327 329 328 326 325 323 321 320 321 321 322 322
352 352 353 353 352 350 345 346 345 344 343 340 339 338 336 334 332 334 332 331 329 329 327 325 324 324 320 317 319 319 321 325 329 331 330 328 327 326 324 322 322 322 321 320
350 350 349 348 346 344 344 343 342 341 339 338 337 337 336 336 333 333 333 331 331 330 328 327 324 322 323 323 322 323 323 324 327 330 331 329 327 324 323 322 321 321 320 320
346 345 346 347 345 344 343 342 339 338 337 336 337 338 338 338 337 336 335 335 334 333 334 336 336 333 332 330 328 328 328 328 328 329 328 328 326 324 322 320 320 320 320 319
345 345 344 343 344 342 341 339 338 337 338 337 337 340 340 340 341 341 341 341 341 341 342 343 342 341 339 336 334 333 332 331 331 329 328 328 326 324 321 320 319 319 319 320